Home   Weather   Currie   Past weeks

Flag for Australia Past Weather in Currie, Tasmania, Australia — Yesterday and Last 2 Weeks

Now
54 °F

Cool.


Feels Like: 49 °F
Forecast: 51 / 56 °F
Wind: 21 mph from West

Location: King Island Airport

Current Time: Sep 25, 2016 at 12:01:05 PM

Latest Report: Sep 25, 2016 at 11:00 AM


Visibility: N/A

Pressure: 29.83 "Hg

Humidity: 60%

Dew Point: 41 °F

Location of CurrieLocation

Past Weather in Currie — Graph

°F

Currie Temperature Yesterday

Maximum temperature yesterday: 63 °F (at 1:00 PM)
Minimum temperature yesterday: 51 °F (at 6:00 AM)
Average temperature yesterday: 56 °F

High & Low Weather Summary for the Past Weeks

 TemperatureHumidityPressure
High63 °F (Sep 24, 1:00 PM)99% (Sep 15, 6:00 AM)30.24 "Hg (Sep 15, 6:00 AM)
Low42 °F (Sep 15, 5:00 AM)54% (Sep 17, 1:00 PM)29.61 "Hg (Sep 15, 4:00 AM)
Average52 °F81%29.92 "Hg
* Reported Sep 10 10:00 AM — Sep 25 10:00 AM, Currie, Weather by CustomWeather, © 2016

Note: Actual official high and low records may vary slightly from our data, if they occured in-between our weather recording intervals... More about our weather records

Advertising

Currie Weather History for the Previous 24 Hours

Scroll right to see more
 ConditionsComfort  
Time TempWeatherWind HumidityBarometerVisibility
10:00 AM
Sun, Sep 25
53 °FCool.18 mph67%29.82 "HgN/A
9:00 AM51 °FOvercast.16 mph71%29.80 "HgN/A
8:00 AM50 °FCool.14 mph72%29.78 "HgN/A
7:00 AM50 °FCool.18 mph69%29.76 "HgN/A
6:00 AM50 °FPassing clouds.16 mph70%29.74 "HgN/A
5:00 AM49 °FCool.16 mph73%29.72 "HgN/A
4:00 AM50 °FCool.16 mph72%29.71 "HgN/A
3:00 AM51 °FPassing clouds.17 mph76%29.69 "HgN/A
2:00 AM51 °FCool.16 mph73%29.70 "HgN/A
1:00 AM52 °FCool.16 mph77%29.69 "HgN/A
12:00 AM53 °FOvercast.18 mph83%29.67 "HgN/A
11:00 PM
Sat, Sep 24
53 °FCool.17 mph89%29.67 "HgN/A
10:00 PM55 °FCool.17 mph97%29.64 "HgN/A
9:00 PM55 °FLight rain. Low clouds.17 mph96%29.65 "Hg5 mi
8:00 PM56 °FCool.16 mph88%29.64 "HgN/A
7:00 PM58 °FCool.12 mph80%29.63 "HgN/A
6:00 PM60 °FDrizzle. Overcast.14 mph74%29.62 "HgN/A
5:00 PM59 °FCool.12 mph77%29.62 "HgN/A
4:00 PM59 °FCool.15 mph76%29.63 "HgN/A
3:00 PM60 °FRain showers. Overcast.15 mph73%29.64 "HgN/A
2:00 PM61 °FCool.20 mph67%29.65 "HgN/A
1:00 PM63 °FMild.17 mph60%29.67 "HgN/A
12:00 PM63 °FOvercast.20 mph56%29.70 "HgN/A
Weather by CustomWeather, © 2016

See weather overviewHow to use our weather pages